Regional Weather Roundup
Issued by NWS

Home | Current Version | Previous Version | Graphics & Text | Print | Product List | Glossary On
Versions: 1 2 3 4 5 6 7 8 9 10 11 12 13 14 15 16 17 18 19 20 21 22 23 24 25 26 27 28 29 30 31 32 33 34 35 36 37 38 39 40 41 42 43 44 45 46 47 48 49 50
000
ASUS43 KBIS 202110
RWRND

NORTH DAKOTA REGIONAL WEATHER ROUNDUP
NATIONAL WEATHER SERVICE BISMARCK ND
300 PM CST MON NOV 20 2017

NOTE: "FAIR" INDICATES FEW OR NO CLOUDS BELOW 12,000 FEET WITH NO
SIGNIFICANT WEATHER AND/OR OBSTRUCTIONS TO VISIBILITY.


NDZ001>003-009>011-017-202200-
NORTHWEST NORTH DAKOTA

CITY           SKY/WX    TMP DP  RH WIND       PRES   REMARKS
WILLISTON      PTSUNNY   38  25  59 NW23G30   29.62R
MINOT          MOSUNNY   39  27  62 W33G51    29.48R
MINOT AFB      SUNNY     36  26  67 NW37G46   29.45R
$$

NDZ018>021-031>035-040>046-202200-
SOUTHWEST NORTH DAKOTA

CITY           SKY/WX    TMP DP  RH WIND       PRES   REMARKS
BISMARCK       SUNNY     59  25  27 NW23G38   29.49R
DICKINSON      SUNNY     50  25  37 NW26G39   29.54R
GARRISON         N/A     41  30  65 NW28G38   29.50R
HETTINGER ARPT SUNNY     54  20  26 NW23G35   29.59R
$$

NDZ004>008-012>016-024-026-027-054-202200-
NORTHEAST NORTH DAKOTA

CITY           SKY/WX    TMP DP  RH WIND       PRES   REMARKS
GRAND FORKS    CLOUDY    42  30  62 W13       29.28R
GRND FRKS AFB  CLOUDY    44  27  52 W17G23    29.28R
DEVILS LAKE    SUNNY     41  30  65 W28G33    29.32R
$$

NDZ022-023-025-028>030-036>039-047>053-202200-
SOUTHEAST NORTH DAKOTA

CITY           SKY/WX    TMP DP  RH WIND       PRES   REMARKS
FARGO          SUNNY     54  26  34 W16       29.34S
JAMESTOWN      SUNNY     54  25  32 W20G25    29.36F
$$





USA.gov is the U.S. government's official web portal to all federal, state and local government web resources and services.